Location: Newark
(43.0000°N, 1.6781°W)
Time: 11:10:01
(UTC+00:00)

Explorer 7 - Pass Details

Date: 27 April 2021
Orbit: 484 x 677 km, 50.3° (Epoch: 07 May)

Event Time Altitude Azimuth Distance (km) Brightness Sun altitude
Rises 19:23:09 0° 278° (W) 2,604 12.1 -4.2°
Reaches altitude 10° 19:25:29 10° 289° (WNW) 1,744 11.3 -4.6°
Maximum altitude 19:29:01 30° 353° (N) 967 8.5 -5.2°
Drops below altitude 10° 19:32:45 10° 56° (NE) 1,842 9.2 -5.8°
Sets 19:35:17 0° 67° (ENE) 2,778 10.0 -6.2°
